Time,TemperatureF,DewpointF,PressureIn,WindDirection,WindDirectionDegrees,WindSpeedMPH,WindSpeedGustMPH,Humidity,HourlyPrecipIn,Conditions,Clouds,dailyrainin,SolarRadiationWatts/m^2,SoftwareType,DateUTC
2013-02-25 00:09:00,59.9,53.7,29.68,SE,126,0.0,0.0,80,0.00,,,0.00,0,Wunderground v.1.15,2013-02-25 06:09:00,
2013-02-25 00:19:00,59.8,54.0,29.67,SE,126,1.0,1.0,81,0.00,,,0.00,0,Wunderground v.1.15,2013-02-25 06:19:00,
2013-02-25 00:24:00,59.8,54.3,29.68,East,96,1.0,1.0,82,0.00,,,0.00,0,Wunderground v.1.15,2013-02-25 06:24:00,
2013-02-25 00:29:00,59.8,54.3,29.67,East,96,1.0,1.0,82,0.00,,,0.00,0,Wunderground v.1.15,2013-02-25 06:29:00,
2013-02-25 00:39:00,59.7,54.2,29.67,East,96,1.0,1.0,82,0.00,,,0.00,0,Wunderground v.1.15,2013-02-25 06:39:00,
2013-02-25 00:44:00,59.7,54.2,29.67,East,96,1.0,1.0,82,0.00,,,0.00,0,Wunderground v.1.15,2013-02-25 06:44:00,
2013-02-25 00:49:00,59.7,54.2,29.67,East,96,1.0,1.0,82,0.00,,,0.00,0,Wunderground v.1.15,2013-02-25 06:49:00,
2013-02-25 00:54:00,59.7,54.2,29.67,ESE,104,0.0,1.0,82,0.00,,,0.00,0,Wunderground v.1.15,2013-02-25 06:54:00,
2013-02-25 01:00:00,59.7,54.5,29.67,ESE,104,0.0,0.0,83,0.00,,,0.00,0,Wunderground v.1.15,2013-02-25 07:00:00,
2013-02-25 01:09:00,59.6,54.4,29.67,ESE,104,0.0,0.0,83,0.00,,,0.00,0,Wunderground v.1.15,2013-02-25 07:09:00,
2013-02-25 01:14:00,59.6,54.4,29.65,ESE,104,1.0,3.0,83,0.00,,,0.00,0,Wunderground v.1.15,2013-02-25 07:14:00,
2013-02-25 01:20:00,59.6,54.4,29.65,East,83,1.0,1.0,83,0.00,,,0.00,0,Wunderground v.1.15,2013-02-25 07:20:00,
2013-02-25 01:30:00,59.5,54.7,29.64,East,91,1.0,1.0,84,0.00,,,0.00,0,Wunderground v.1.15,2013-02-25 07:30:00,
2013-02-25 01:39:00,59.4,54.9,29.64,East,101,1.0,1.0,85,0.00,,,0.00,0,Wunderground v.1.15,2013-02-25 07:39:00,
2013-02-25 01:44:00,59.4,54.9,29.64,SE,126,1.0,1.0,85,0.00,,,0.00,0,Wunderground v.1.15,2013-02-25 07:44:00,
2013-02-25 01:50:00,59.3,54.8,29.64,ESE,113,1.0,2.0,85,0.00,,,0.00,0,Wunderground v.1.15,2013-02-25 07:50:00,
2013-02-25 01:59:00,59.3,55.1,29.63,ESE,117,0.0,1.0,86,0.00,,,0.00,0,Wunderground v.1.15,2013-02-25 07:59:00,
2013-02-25 02:04:00,59.4,55.5,29.62,ESE,117,0.0,1.0,87,0.00,,,0.00,0,Wunderground v.1.15,2013-02-25 08:04:00,
2013-02-25 02:09:00,59.4,55.5,29.61,ESE,114,1.0,1.0,87,0.00,,,0.00,0,Wunderground v.1.15,2013-02-25 08:09:00,
2013-02-25 02:14:00,59.3,55.4,29.61,SE,133,1.0,1.0,87,0.00,,,0.00,0,Wunderground v.1.15,2013-02-25 08:14:00,
2013-02-25 02:24:00,59.4,55.8,29.61,East,89,1.0,1.0,88,0.00,,,0.00,0,Wunderground v.1.15,2013-02-25 08:24:00,
2013-02-25 02:29:00,59.4,55.8,29.60,SE,138,1.0,2.0,88,0.00,,,0.00,0,Wunderground v.1.15,2013-02-25 08:29:00,
2013-02-25 02:34:00,59.4,55.8,29.60,ESE,115,1.0,2.0,88,0.00,,,0.00,0,Wunderground v.1.15,2013-02-25 08:34:00,
2013-02-25 02:39:00,59.3,56.1,29.60,ESE,119,1.0,2.0,89,0.00,,,0.00,0,Wunderground v.1.15,2013-02-25 08:39:00,
2013-02-25 02:44:00,59.3,56.1,29.60,East,98,1.0,2.0,89,0.00,,,0.00,0,Wunderground v.1.15,2013-02-25 08:44:00,
2013-02-25 02:50:00,59.4,56.5,29.60,East,101,1.0,1.0,90,0.00,,,0.00,0,Wunderground v.1.15,2013-02-25 08:50:00,
2013-02-25 02:59:00,59.5,56.9,29.59,East,82,1.0,1.0,91,0.00,,,0.00,0,Wunderground v.1.15,2013-02-25 08:59:00,
2013-02-25 03:04:00,59.5,56.9,29.59,East,97,1.0,1.0,91,0.00,,,0.00,0,Wunderground v.1.15,2013-02-25 09:04:00,
2013-02-25 03:09:00,59.5,56.9,29.59,East,97,1.0,2.0,91,0.00,,,0.00,0,Wunderground v.1.15,2013-02-25 09:09:00,
2013-02-25 03:19:00,59.5,57.2,29.59,ESE,117,1.0,1.0,92,0.00,,,0.00,0,Wunderground v.1.15,2013-02-25 09:19:00,
2013-02-25 03:24:00,59.5,57.2,29.59,ESE,114,1.0,1.0,92,0.00,,,0.00,0,Wunderground v.1.15,2013-02-25 09:24:00,
2013-02-25 03:29:00,59.5,57.2,29.58,East,94,1.0,3.0,92,0.00,,,0.00,0,Wunderground v.1.15,2013-02-25 09:29:00,
2013-02-25 03:34:00,59.5,57.2,29.58,East,95,1.0,3.0,92,0.00,,,0.00,0,Wunderground v.1.15,2013-02-25 09:34:00,
2013-02-25 03:40:00,59.5,57.2,29.58,ESE,109,1.0,1.0,92,0.00,,,0.00,0,Wunderground v.1.15,2013-02-25 09:40:00,
2013-02-25 03:49:00,59.5,57.5,29.58,East,97,2.0,3.0,93,0.00,,,0.00,0,Wunderground v.1.15,2013-02-25 09:49:00,
2013-02-25 03:54:00,59.5,57.5,29.59,ENE,69,2.0,3.0,93,0.00,,,0.00,0,Wunderground v.1.15,2013-02-25 09:54:00,
2013-02-25 03:59:00,59.6,57.6,29.59,ENE,69,1.0,1.0,93,0.00,,,0.00,0,Wunderground v.1.15,2013-02-25 09:59:00,
2013-02-25 04:05:00,59.6,57.6,29.60,ENE,69,1.0,1.0,93,0.00,,,0.00,0,Wunderground v.1.15,2013-02-25 10:05:00,
2013-02-25 04:10:00,59.6,57.6,29.59,ENE,69,0.0,1.0,93,0.00,,,0.00,0,Wunderground v.1.15,2013-02-25 10:10:00,
2013-02-25 04:19:00,59.5,57.8,29.58,ESE,104,1.0,1.0,94,0.00,,,0.00,0,Wunderground v.1.15,2013-02-25 10:19:00,
2013-02-25 04:29:00,59.5,57.8,29.57,ESE,116,1.0,2.0,94,0.00,,,0.00,0,Wunderground v.1.15,2013-02-25 10:29:00,
2013-02-25 04:35:00,59.6,58.2,29.58,SE,126,1.0,2.0,95,0.00,,,0.00,0,Wunderground v.1.15,2013-02-25 10:35:00,
2013-02-25 04:44:00,59.6,58.2,29.58,ESE,111,1.0,1.0,95,0.00,,,0.00,0,Wunderground v.1.15,2013-02-25 10:44:00,
2013-02-25 05:30:00,59.8,58.7,29.58,ESE,115,0.0,1.0,96,0.00,,,0.00,0,Wunderground v.1.15,2013-02-25 11:30:00,
2013-02-25 05:35:00,59.9,58.8,29.58,ESE,117,1.0,1.0,96,0.00,,,0.00,0,Wunderground v.1.15,2013-02-25 11:35:00,
2013-02-25 05:40:00,60.0,58.9,29.58,ESE,117,1.0,1.0,96,0.00,,,0.00,0,Wunderground v.1.15,2013-02-25 11:40:00,
2013-02-25 05:45:00,60.0,58.9,29.58,East,88,1.0,1.0,96,0.00,,,0.00,0,Wunderground v.1.15,2013-02-25 11:45:00,
2013-02-25 05:50:00,60.1,59.0,29.58,East,95,1.0,1.0,96,0.00,,,0.00,0,Wunderground v.1.15,2013-02-25 11:50:00,
2013-02-25 06:00:00,60.2,59.1,29.58,East,98,1.0,1.0,96,0.00,,,0.00,0,Wunderground v.1.15,2013-02-25 12:00:00,
2013-02-25 06:05:00,60.2,59.1,29.58,East,99,1.0,1.0,96,0.00,,,0.00,0,Wunderground v.1.15,2013-02-25 12:05:00,
2013-02-25 06:10:00,60.3,59.2,29.58,SE,143,1.0,1.0,96,0.00,,,0.00,0,Wunderground v.1.15,2013-02-25 12:10:00,
2013-02-25 06:15:00,60.3,59.2,29.58,SE,139,0.0,2.0,96,0.00,,,0.00,0,Wunderground v.1.15,2013-02-25 12:15:00,
2013-02-25 06:20:00,60.4,59.3,29.58,SE,135,1.0,1.0,96,0.00,,,0.00,0,Wunderground v.1.15,2013-02-25 12:20:00,
2013-02-25 06:30:00,60.5,59.4,29.59,SE,138,0.0,1.0,96,0.00,,,0.00,0,Wunderground v.1.15,2013-02-25 12:30:00,
2013-02-25 06:35:00,60.6,59.7,29.59,SE,138,0.0,1.0,97,0.00,,,0.00,0,Wunderground v.1.15,2013-02-25 12:35:00,
2013-02-25 06:45:00,60.7,59.8,29.60,SE,138,0.0,0.0,97,0.00,,,0.00,0,Wunderground v.1.15,2013-02-25 12:45:00,
2013-02-25 06:55:00,60.8,59.9,29.60,SW,227,1.0,1.0,97,0.00,,,0.00,0,Wunderground v.1.15,2013-02-25 12:55:00,
2013-02-25 07:00:00,60.9,60.0,29.60,SW,225,1.0,1.0,97,0.00,,,0.00,0,Wunderground v.1.15,2013-02-25 13:00:00,
2013-02-25 07:05:00,61.0,60.1,29.60,SSE,161,1.0,1.0,97,0.00,,,0.00,9,Wunderground v.1.15,2013-02-25 13:05:00,
2013-02-25 07:10:00,61.0,60.1,29.60,SSE,161,1.0,1.0,97,0.00,,,0.00,9,Wunderground v.1.15,2013-02-25 13:10:00,
2013-02-25 07:20:00,61.1,60.2,29.61,SSE,161,1.0,1.0,97,0.00,,,0.00,14,Wunderground v.1.15,2013-02-25 13:20:00,
2013-02-25 07:25:00,61.1,60.2,29.61,SSE,161,0.0,1.0,97,0.00,,,0.00,9,Wunderground v.1.15,2013-02-25 13:25:00,
2013-02-25 07:30:00,61.2,60.3,29.61,SSE,161,0.0,0.0,97,0.00,,,0.00,11,Wunderground v.1.15,2013-02-25 13:30:00,
2013-02-25 07:40:00,61.1,60.2,29.61,SSE,161,1.0,1.0,97,0.00,,,0.00,14,Wunderground v.1.15,2013-02-25 13:40:00,
2013-02-25 07:45:00,61.1,60.2,29.61,East,96,0.0,1.0,97,0.00,,,0.00,14,Wunderground v.1.15,2013-02-25 13:45:00,
2013-02-25 07:50:00,61.1,60.2,29.61,East,96,0.0,1.0,97,0.00,,,0.00,23,Wunderground v.1.15,2013-02-25 13:50:00,
2013-02-25 07:55:00,61.1,60.2,29.61,East,96,1.0,1.0,97,0.00,,,0.00,32,Wunderground v.1.15,2013-02-25 13:55:00,
2013-02-25 08:00:00,61.2,60.3,29.61,East,96,1.0,1.0,97,0.00,,,0.00,44,Wunderground v.1.15,2013-02-25 14:00:00,
2013-02-25 08:10:00,61.4,60.5,29.61,East,96,1.0,2.0,97,0.00,,,0.00,62,Wunderground v.1.15,2013-02-25 14:10:00,
2013-02-25 08:20:00,61.5,60.6,29.62,East,92,1.0,1.0,97,0.00,,,0.00,42,Wunderground v.1.15,2013-02-25 14:20:00,
2013-02-25 08:25:00,61.6,60.7,29.61,East,92,0.0,1.0,97,0.00,,,0.00,58,Wunderground v.1.15,2013-02-25 14:25:00,
2013-02-25 08:35:00,61.7,60.8,29.62,East,99,1.0,2.0,97,0.00,,,0.00,65,Wunderground v.1.15,2013-02-25 14:35:00,
2013-02-25 08:40:00,61.8,60.9,29.62,East,99,1.0,1.0,97,0.00,,,0.00,49,Wunderground v.1.15,2013-02-25 14:40:00,
2013-02-25 08:45:00,62.0,61.4,29.62,East,99,0.0,1.0,98,0.00,,,0.00,60,Wunderground v.1.15,2013-02-25 14:45:00,
2013-02-25 08:50:00,62.1,61.5,29.62,East,99,0.0,0.0,98,0.00,,,0.00,40,Wunderground v.1.15,2013-02-25 14:50:00,
2013-02-25 08:55:00,62.2,61.6,29.62,East,99,0.0,0.0,98,0.00,,,0.00,47,Wunderground v.1.15,2013-02-25 14:55:00,
2013-02-25 09:05:00,62.3,61.7,29.61,East,99,1.0,1.0,98,0.00,,,0.00,137,Wunderground v.1.15,2013-02-25 15:05:00,
2013-02-25 09:15:00,62.7,62.1,29.59,ENE,69,1.0,4.0,98,0.00,,,0.00,253,Wunderground v.1.15,2013-02-25 15:15:00,
2013-02-25 09:25:00,63.3,62.7,29.59,ESE,112,2.0,2.0,98,0.00,,,0.00,185,Wunderground v.1.15,2013-02-25 15:25:00,
2013-02-25 09:30:00,63.5,62.9,29.59,East,99,1.0,1.0,98,0.00,,,0.00,151,Wunderground v.1.15,2013-02-25 15:30:00,
2013-02-25 09:35:00,63.6,63.0,29.59,ESE,113,2.0,3.0,98,0.00,,,0.00,156,Wunderground v.1.15,2013-02-25 15:35:00,
2013-02-25 09:40:00,63.9,63.3,29.59,East,93,1.0,1.0,98,0.00,,,0.00,278,Wunderground v.1.15,2013-02-25 15:40:00,
2013-02-25 09:50:00,64.9,64.3,29.59,SSE,167,2.0,5.0,98,0.00,,,0.00,171,Wunderground v.1.15,2013-02-25 15:50:00,
2013-02-25 09:55:00,65.1,64.2,29.58,ESE,117,2.0,5.0,97,0.00,,,0.00,148,Wunderground v.1.15,2013-02-25 15:55:00,
2013-02-25 10:00:00,65.4,64.2,29.58,ESE,103,2.0,2.0,96,0.00,,,0.00,253,Wunderground v.1.15,2013-02-25 16:00:00,
2013-02-25 10:05:00,65.8,64.6,29.58,South,171,2.0,2.0,96,0.00,,,0.00,178,Wunderground v.1.15,2013-02-25 16:05:00,
2013-02-25 10:10:00,66.4,65.2,29.58,South,170,0.0,2.0,96,0.00,,,0.00,338,Wunderground v.1.15,2013-02-25 16:10:00,
2013-02-25 10:15:00,67.0,65.2,29.58,SSE,147,1.0,5.0,94,0.00,,,0.00,176,Wunderground v.1.15,2013-02-25 16:15:00,
2013-02-25 10:25:00,67.6,65.8,29.58,SSW,200,2.0,4.0,94,0.00,,,0.00,111,Wunderground v.1.15,2013-02-25 16:25:00,
2013-02-25 10:30:00,67.8,65.7,29.58,SSE,167,2.0,2.0,93,0.00,,,0.00,202,Wunderground v.1.15,2013-02-25 16:30:00,
2013-02-25 10:35:00,68.2,66.1,29.57,SSE,167,2.0,2.0,93,0.00,,,0.00,388,Wunderground v.1.15,2013-02-25 16:35:00,
2013-02-25 10:40:00,68.8,66.7,29.57,SSE,166,1.0,3.0,93,0.00,,,0.00,410,Wunderground v.1.15,2013-02-25 16:40:00,
2013-02-25 10:45:00,69.3,66.9,29.57,South,176,2.0,3.0,92,0.00,,,0.00,211,Wunderground v.1.15,2013-02-25 16:45:00,
2013-02-25 10:55:00,69.8,67.1,29.56,SSE,150,2.0,2.0,91,0.00,,,0.00,146,Wunderground v.1.15,2013-02-25 16:55:00,
2013-02-25 11:00:00,69.8,67.1,29.56,SSW,207,2.0,2.0,91,0.00,,,0.00,97,Wunderground v.1.15,2013-02-25 17:00:00,
2013-02-25 11:05:00,69.7,67.0,29.56,SSE,166,2.0,2.0,91,0.00,,,0.00,153,Wunderground v.1.15,2013-02-25 17:05:00,
2013-02-25 11:10:00,69.7,67.0,29.56,SSE,167,2.0,2.0,91,0.00,,,0.00,214,Wunderground v.1.15,2013-02-25 17:10:00,
2013-02-25 11:15:00,69.9,67.2,29.55,SSE,150,1.0,4.0,91,0.00,,,0.00,237,Wunderground v.1.15,2013-02-25 17:15:00,
2013-02-25 11:25:00,70.1,67.3,29.55,South,191,3.0,5.0,91,0.00,,,0.00,162,Wunderground v.1.15,2013-02-25 17:25:00,
2013-02-25 11:35:00,70.4,67.6,29.54,South,189,2.0,5.0,91,0.00,,,0.00,334,Wunderground v.1.15,2013-02-25 17:35:00,
2013-02-25 11:40:00,70.5,67.4,29.53,South,190,2.0,2.0,90,0.00,,,0.00,93,Wunderground v.1.15,2013-02-25 17:40:00,
2013-02-25 11:50:00,70.1,67.7,29.52,South,184,1.0,1.0,92,0.13,,,0.04,72,Wunderground v.1.15,2013-02-25 17:50:00,
2013-02-25 11:55:00,69.9,67.8,29.52,South,184,0.0,1.0,93,0.26,,,0.06,25,Wunderground v.1.15,2013-02-25 17:55:00,
2013-02-25 12:00:00,69.7,67.6,29.51,South,184,0.0,0.0,93,0.14,,,0.07,37,Wunderground v.1.15,2013-02-25 18:00:00,
2013-02-25 12:10:00,69.2,67.4,29.52,SW,224,1.0,1.0,94,0.05,,,0.07,30,Wunderground v.1.15,2013-02-25 18:10:00,
2013-02-25 12:20:00,68.9,67.4,29.51,SW,223,1.0,1.0,95,0.00,,,0.07,163,Wunderground v.1.15,2013-02-25 18:20:00,
2013-02-25 12:25:00,69.0,67.8,29.51,SW,225,1.0,1.0,96,0.00,,,0.07,97,Wunderground v.1.15,2013-02-25 18:25:00,
2013-02-25 12:30:00,69.1,67.9,29.50,SW,235,1.0,5.0,96,0.00,,,0.07,81,Wunderground v.1.15,2013-02-25 18:30:00,
2013-02-25 12:35:00,69.3,68.1,29.50,SW,222,2.0,5.0,96,0.00,,,0.07,290,Wunderground v.1.15,2013-02-25 18:35:00,
2013-02-25 12:45:00,70.1,67.7,29.50,West,275,4.0,4.0,92,0.00,,,0.07,387,Wunderground v.1.15,2013-02-25 18:45:00,
2013-02-25 12:55:00,71.0,67.3,29.49,WNW,300,5.0,10.0,88,0.00,,,0.07,100,Wunderground v.1.15,2013-02-25 18:55:00,
2013-02-25 13:00:00,70.6,57.8,29.49,WNW,284,7.0,7.0,64,0.00,,,0.07,258,Wunderground v.1.15,2013-02-25 19:00:00,
2013-02-25 13:05:00,70.3,54.3,29.48,NW,322,6.0,7.0,57,0.00,,,0.07,369,Wunderground v.1.15,2013-02-25 19:05:00,
2013-02-25 13:10:00,70.4,54.0,29.48,WNW,299,6.0,6.0,56,0.00,,,0.07,652,Wunderground v.1.15,2013-02-25 19:10:00,
2013-02-25 13:15:00,71.3,52.8,29.48,West,277,6.0,10.0,52,0.00,,,0.07,807,Wunderground v.1.15,2013-02-25 19:15:00,
2013-02-25 13:25:00,72.1,53.5,29.48,NW,304,7.0,11.0,52,0.00,,,0.07,434,Wunderground v.1.15,2013-02-25 19:25:00,
2013-02-25 13:30:00,72.1,53.0,29.48,WNW,302,7.0,12.0,51,0.00,,,0.07,346,Wunderground v.1.15,2013-02-25 19:30:00,
2013-02-25 13:35:00,72.5,53.9,29.48,NW,315,7.0,12.0,52,0.00,,,0.07,854,Wunderground v.1.15,2013-02-25 19:35:00,
2013-02-25 13:40:00,73.1,53.9,29.47,NW,326,6.0,6.0,51,0.00,,,0.07,826,Wunderground v.1.15,2013-02-25 19:40:00,
2013-02-25 13:45:00,73.7,53.9,29.47,NW,313,5.0,6.0,50,0.00,,,0.07,225,Wunderground v.1.15,2013-02-25 19:45:00,
2013-02-25 13:55:00,74.2,53.2,29.46,WNW,292,4.0,7.0,48,0.00,,,0.07,717,Wunderground v.1.15,2013-02-25 19:55:00,
2013-02-25 14:00:00,74.2,53.2,29.46,NW,316,7.0,7.0,48,0.00,,,0.07,731,Wunderground v.1.15,2013-02-25 20:00:00,
2013-02-25 14:05:00,74.6,54.2,29.46,WNW,300,7.0,7.0,49,0.00,,,0.07,773,Wunderground v.1.15,2013-02-25 20:05:00,
2013-02-25 14:10:00,75.1,54.6,29.46,WNW,288,6.0,6.0,49,0.00,,,0.07,853,Wunderground v.1.15,2013-02-25 20:10:00,
2013-02-25 14:15:00,75.1,54.1,29.46,WSW,251,8.0,10.0,48,0.00,,,0.07,559,Wunderground v.1.15,2013-02-25 20:15:00,
2013-02-25 14:25:00,75.3,52.5,29.46,WSW,258,7.0,8.0,45,0.00,,,0.07,726,Wunderground v.1.15,2013-02-25 20:25:00,
2013-02-25 14:35:00,75.5,48.8,29.47,WNW,289,8.0,13.0,39,0.00,,,0.07,668,Wunderground v.1.15,2013-02-25 20:35:00,
2013-02-25 14:40:00,75.4,47.3,29.47,WNW,292,8.0,15.0,37,0.00,,,0.07,656,Wunderground v.1.15,2013-02-25 20:40:00,
2013-02-25 14:45:00,75.3,47.9,29.48,NW,305,9.0,15.0,38,0.00,,,0.07,636,Wunderground v.1.15,2013-02-25 20:45:00,
2013-02-25 14:55:00,75.0,47.0,29.47,WNW,286,9.0,9.0,37,0.00,,,0.07,584,Wunderground v.1.15,2013-02-25 20:55:00,
2013-02-25 15:00:00,74.9,46.1,29.47,WNW,301,9.0,17.0,36,0.00,,,0.07,564,Wunderground v.1.15,2013-02-25 21:00:00,
2013-02-25 15:05:00,74.9,44.6,29.47,WSW,239,9.0,17.0,34,0.00,,,0.07,557,Wunderground v.1.15,2013-02-25 21:05:00,
2013-02-25 15:10:00,75.0,46.2,29.47,West,273,7.0,18.0,36,0.00,,,0.07,540,Wunderground v.1.15,2013-02-25 21:10:00,
2013-02-25 15:15:00,74.9,45.4,29.47,WSW,246,9.0,18.0,35,0.00,,,0.07,515,Wunderground v.1.15,2013-02-25 21:15:00,
2013-02-25 15:25:00,74.6,45.1,29.46,SW,236,8.0,10.0,35,0.00,,,0.07,504,Wunderground v.1.15,2013-02-25 21:25:00,
2013-02-25 15:30:00,74.9,45.4,29.47,West,267,7.0,7.0,35,0.00,,,0.07,485,Wunderground v.1.15,2013-02-25 21:30:00,
2013-02-25 15:35:00,74.7,44.5,29.47,WSW,238,9.0,9.0,34,0.00,,,0.07,473,Wunderground v.1.15,2013-02-25 21:35:00,
2013-02-25 15:45:00,74.8,40.4,29.47,WSW,250,8.0,14.0,29,0.00,,,0.07,446,Wunderground v.1.15,2013-02-25 21:45:00,
2013-02-25 15:55:00,74.5,36.4,29.46,WSW,253,11.0,14.0,25,0.00,,,0.07,420,Wunderground v.1.15,2013-02-25 21:55:00,
2013-02-25 16:00:00,74.3,38.1,29.46,West,262,9.0,12.0,27,0.00,,,0.07,410,Wunderground v.1.15,2013-02-25 22:00:00,
2013-02-25 16:05:00,74.6,38.4,29.46,NW,304,7.0,12.0,27,0.00,,,0.07,392,Wunderground v.1.15,2013-02-25 22:05:00,
2013-02-25 16:10:00,74.5,36.4,29.45,SW,236,8.0,8.0,25,0.00,,,0.07,373,Wunderground v.1.15,2013-02-25 22:10:00,
2013-02-25 16:20:00,74.7,32.1,29.45,SW,223,8.0,8.0,21,0.00,,,0.07,346,Wunderground v.1.15,2013-02-25 22:20:00,
2013-02-25 16:25:00,74.5,28.2,29.45,West,269,10.0,14.0,18,0.00,,,0.07,323,Wunderground v.1.15,2013-02-25 22:25:00,
2013-02-25 16:30:00,74.3,28.0,29.45,West,269,12.0,12.0,18,0.00,,,0.07,309,Wunderground v.1.15,2013-02-25 22:30:00,